Voltar ao catálogo

STARLINK-4676

AtivoComunicaçõesVLEO
NORAD 53598·PAYLOAD·🇺🇸 United States

Lançado Aug 28, 2022 de Cape Canaveral Space Force Station

Loading…

Próximas Passagens (próximas 24 horas)

TLE

AtualizadoSource: CelesTrak SupGP

Época: Sep 14, 2026, 13:41 UTC

1 53598C 22104L   26257.57062500  .00698640  00000+0  32875-1 0  2571
2 53598  53.1599 113.1402 0001329  99.1326 289.5357 15.18691145    12

Acompanhe STARLINK-4676 em tempo real com AllMySat

Download on the App Store